Flag for Mexico Weather past 2 weeks in Ojinaga, Chihuahua, Mexico

Now
37 °F

Clear.


Feels Like: 34 °F
Forecast: 50 / 86 °F
Wind: 5 mph from North

Location: Marfa Municipal Airport

Current Time: Apr 26, 2015 at 4:54:23 AM

Latest Report: Apr 26, 2015 at 4:15 AM


Visibility: 10 mi

Pressure: 29.87 "Hg

Humidity: 81%

Dew point: 32 °F

Location of OjinagaLocation

Historic Weather in Ojinaga — Graph

°F

Ojinaga temperature yesterday

Maximum temperature yesterday: 75 °F (at 4:15 PM)
Minimum temperature yesterday: 34 °F (at 5:55 AM)
Average temperature yesterday: 57 °F

Past Weeks' High & Low Weather Summary

 TemperatureHumidityPressure
High79 °F (Apr 21, 2:15 PM)100% (Apr 11, 5:15 AM)30.28 "Hg (Apr 11, 5:15 AM)
Low34 °F (Apr 25, 5:55 AM)12% (Apr 18, 4:35 PM)29.87 "Hg (Apr 26, 3:15 AM)
Average57 °F58%30.04 "Hg
* Reported Apr 11 3:15 AM — Apr 26 3:55 AM, Ojinaga, Weather by CustomWeather, © 2015

Note: Actual official high and low records may vary slightly from our data, if they occured in-between our weather recording intervals... More about our weather records

Advertising

Ojinaga weather history for previous 24 hours

 ConditionsComfort  
Time TempWeatherWind HumidityBarometerVisibility
3:55 AM
Sun, Apr 26
37 °FClear.3 mph81%29.87 "Hg10 mi
3:35 AM41 °FClear.No wind66%29.87 "Hg10 mi
3:15 AM43 °FClear.6 mph66%29.87 "Hg10 mi
2:55 AM41 °FClear.5 mph76%29.88 "Hg10 mi
2:35 AM43 °FClear.3 mph66%29.88 "Hg10 mi
2:15 AM41 °FClear.3 mph70%29.88 "Hg10 mi
1:55 AM43 °FClear.7 mph66%29.89 "Hg10 mi
1:35 AM41 °FClear.8 mph76%29.89 "Hg10 mi
1:15 AM43 °FClear.5 mph71%29.90 "Hg10 mi
12:55 AM43 °FClear.6 mph71%29.90 "Hg10 mi
12:35 AM45 °FClear.6 mph61%29.90 "Hg10 mi
12:15 AM45 °FClear.No wind66%29.90 "Hg10 mi
11:55 PM
Sat, Apr 25
45 °FClear.9 mph66%29.90 "Hg10 mi
11:35 PM45 °FClear.7 mph66%29.90 "Hg10 mi
11:15 PM45 °FClear.7 mph66%29.90 "Hg10 mi
10:55 PM46 °FClear.5 mph62%29.90 "Hg10 mi
10:35 PM48 °FClear.8 mph58%29.90 "Hg10 mi
10:15 PM46 °FClear.7 mph66%29.90 "Hg10 mi
9:15 PM52 °FClear.5 mph54%29.90 "Hg10 mi
8:55 PM52 °FClear.6 mph50%29.90 "Hg10 mi
8:35 PM55 °FClear.5 mph44%29.90 "Hg10 mi
8:15 PM57 °FSunny.No wind41%29.90 "Hg10 mi
7:55 PM63 °FSunny.5 mph30%29.90 "Hg10 mi
7:35 PM64 °FSunny.6 mph32%29.90 "Hg10 mi
7:15 PM66 °FSunny.7 mph26%29.90 "Hg10 mi
6:55 PM70 °FSunny.9 mph20%29.90 "Hg10 mi
6:35 PM72 °FSunny.9 mph19%29.90 "Hg10 mi
6:15 PM73 °FSunny.15 mph16%29.90 "Hg10 mi
5:55 PM73 °FSunny.15 mph17%29.91 "Hg10 mi
5:35 PM73 °FSunny.13 mph17%29.91 "Hg10 mi
5:15 PM75 °FSunny.16 mph16%29.92 "Hg10 mi
4:55 PM75 °FSunny.17 mph16%29.92 "Hg10 mi
4:35 PM75 °FSunny.8 mph16%29.92 "Hg10 mi
4:15 PM75 °FSunny.14 mph18%29.92 "Hg10 mi
3:15 PM73 °FSunny.9 mph19%29.95 "Hg10 mi
2:55 PM73 °FSunny.13 mph19%29.96 "Hg10 mi
2:35 PM73 °FSunny.13 mph17%29.97 "Hg10 mi
2:15 PM73 °FSunny.17 mph17%29.98 "Hg10 mi
1:55 PM73 °FSunny.18 mph17%29.99 "Hg10 mi
1:35 PM72 °FSunny.14 mph19%29.99 "Hg10 mi
1:15 PM72 °FSunny.14 mph19%30.00 "Hg10 mi
12:55 PM72 °FSunny.15 mph19%30.01 "Hg10 mi
12:35 PM72 °FSunny.17 mph17%30.02 "Hg10 mi
12:15 PM70 °FSunny.16 mph18%30.03 "Hg10 mi
11:55 AM70 °FSunny.15 mph20%30.04 "Hg10 mi
11:35 AM70 °FSunny.18 mph21%30.05 "Hg10 mi
11:15 AM70 °FSunny.13 mph21%30.06 "Hg10 mi
10:55 AM68 °FSunny.13 mph23%30.06 "Hg10 mi
10:35 AM66 °FSunny.14 mph26%30.06 "Hg10 mi
10:15 AM64 °FSunny.12 mph28%30.07 "Hg10 mi
9:55 AM64 °FSunny.10 mph28%30.07 "Hg10 mi
9:35 AM64 °FSunny.15 mph30%30.07 "Hg10 mi
9:15 AM61 °FSunny.6 mph36%30.07 "Hg10 mi
8:55 AM57 °FSunny.3 mph44%30.07 "Hg10 mi
8:35 AM55 °FSunny.No wind44%30.07 "Hg10 mi
8:15 AM54 °FSunny.No wind51%30.06 "Hg10 mi
7:55 AM52 °FSunny.No wind54%30.06 "Hg10 mi
7:35 AM46 °FSunny.No wind76%30.05 "Hg10 mi
7:15 AM43 °FClear.No wind81%30.05 "Hg10 mi
6:55 AM37 °FClear.5 mph87%30.04 "Hg10 mi
6:35 AM34 °FClear.3 mph87%30.04 "Hg10 mi
6:15 AM36 °FClear.3 mph81%30.03 "Hg10 mi
5:55 AM34 °FClear.3 mph87%30.02 "Hg10 mi
5:35 AM36 °FClear.3 mph81%30.02 "Hg10 mi
5:15 AM36 °FClear.5 mph81%30.02 "Hg10 mi
4:55 AM37 °FClear.3 mph81%30.02 "Hg10 mi
4:35 AM37 °FClear.No wind81%30.01 "Hg10 mi
4:15 AM39 °FClear.3 mph75%30.02 "Hg10 mi
Weather by CustomWeather, © 2015

See weather overviewHow to use our weather pages